#timestamp,LO_Frequency,Hit,StdDev 
1550682015.6,286047000.3,N
1550682035.4,286047000.8,N
1550682055.3,286047000.5,N
1550682075.1,286047000.7,N
1550682095.9,286047000.9,N
1550682115.7,286047000.7,N
1550682135.5,286046998.5,N
1550682155.4,286047000.8,N
1550682175.2,286046999.9,N
1550682195.0,286047000.9,N
1550682196.0,286047000.9,N
1550682215.8,286047000.3,N
1550682235.6,286047002.8,N
1550682255.5,286047002.8,N
1550682275.3,286047002.3,N
1550682295.1,286047002.0,N
1550682315.9,286047001.4,N
1550682335.7,286047001.4,N
1550682355.6,286047000.4,N
1550682375.4,286047000.5,N
1550682395.2,286047000.6,N
1550682415.1,286046999.1,N
1550682416.0,286046999.1,N
1550682435.8,286046999.5,N
1550682455.6,286046999.1,N
1550682475.5,286046999.1,N
1550682495.3,286046995.0,Y
1550682515.2,286046998.0,P
1550682535.0,286046995.5,P
1550682535.9,286046995.5,N
1550682555.7,286046998.0,N
1550682575.6,286046998.0,N
1550682595.4,286046995.3,N
1550682615.3,286046997.3,N
1550682635.1,286046999.3,N
1550682636.0,286046999.3,N
1550682655.8,286046999.1,N
1550682675.7,286046999.6,N
1550682695.5,286046999.3,N
1550682715.3,286046999.6,N
1550682735.2,286046997.0,N
1550682755.0,286046997.0,N
1550682755.9,286046997.0,N
1550682775.8,286046997.3,N
1550682795.6,286046996.8,N
1550682815.4,286046997.5,N
1550682835.3,286046995.3,Y
1550682855.1,286046998.3,P
1550682875.9,286046998.6,P
1550682895.7,286046998.1,P
1550682915.5,286046998.5,Y
1550682935.4,286047000.3,P
1550682955.2,286046998.3,N
1550682975.0,286046998.6,N
1550682975.9,286046998.6,N
1550682995.8,286047000.3,N
1550683015.6,286047000.1,N
1550683035.5,286047000.0,N
1550683055.3,286046999.9,N
1550683075.1,286047000.5,N
1550683095.9,286047001.1,N
1550683115.7,286047002.6,N
1550683135.5,286047001.8,N
1550683155.4,286047001.5,N
1550683175.2,286047001.4,N
1550683195.1,286047005.9,Y
1550683196.0,286047005.9,P
1550683215.8,286047003.9,N
1550683235.6,286047005.5,N
1550683255.5,286047005.9,N
1550683275.3,286047004.3,N
1550683295.2,286047001.4,N
1550683315.9,286047001.7,N
1550683335.7,286047001.8,N
1550683355.6,286047002.0,N
1550683375.4,286047001.7,N
1550683395.2,286047002.0,N
1550683415.1,286047001.5,N
1550683416.0,286047001.5,N
1550683435.8,286047002.2,N
1550683455.7,286047002.3,N
1550683475.5,286046999.7,N
1550683495.3,286047000.1,N
1550683515.2,286047000.9,N
1550683535.0,286046999.0,N
1550683535.9,286046999.0,N
1550683555.7,286046999.5,N
1550683575.6,286046996.5,N
1550683595.4,286046998.4,N
1550683615.3,286047001.0,N
1550683635.1,286047000.9,N
1550683636.0,286047000.9,N
1550683655.8,286047000.6,N
1550683675.7,286047002.7,N
1550683695.5,286046999.7,N
1550683715.3,286047002.8,N
1550683735.2,286047002.0,N
1550683755.0,286047004.3,N
1550683755.9,286047004.3,N
1550683775.8,286047002.6,N
1550683795.6,286047002.4,N
1550683815.4,286047001.4,N
1550683835.3,286047000.1,N
1550683855.1,286047002.7,N
1550683875.8,286047002.6,N
1550683895.7,286047000.1,N
1550683915.5,286046998.3,N
1550683935.4,286046998.2,N
1550683955.2,286047001.0,N
1550683975.0,286047000.8,N
1550683975.9,286047000.8,N
1550683995.8,286047000.0,N
1550684015.6,286047000.6,N
1550684035.5,286047000.7,N
1550684055.3,286047002.3,N
1550684075.1,286046999.9,N
1550684095.9,286046999.9,N
1550684115.7,286047000.9,N
1550684135.5,286047000.1,N
1550684155.4,286047002.8,N
1550684175.2,286047004.4,N
1550684195.1,286047002.1,N
1550684196.0,286047002.1,N
1550684215.8,286047002.4,N
1550684235.6,286047001.6,N
1550684255.5,286047001.8,N
1550684275.3,286047004.3,N
1550684295.1,286047004.3,N
1550684315.9,286047001.4,N
1550684335.7,286047001.4,N
1550684355.6,286047002.1,N
1550684375.4,286047000.0,N
1550684395.2,286047002.7,N
1550684415.1,286047002.6,N
1550684416.0,286047002.6,N
1550684435.8,286047002.6,N
1550684455.6,286047001.5,N
1550684475.5,286047001.9,N
1550684495.3,286047002.0,N
1550684515.2,286047004.1,Y
1550684535.0,286047002.2,P
1550684535.9,286047002.2,P
1550684555.7,286046998.5,P
1550684575.6,286046998.3,N
1550684595.4,286047000.8,N
1550684615.3,286046998.4,N
1550684635.1,286046998.3,N
1550684636.0,286046998.3,N
1550684655.8,286046998.2,N
1550684675.7,286047000.8,N
1550684695.5,286047001.2,N
1550684715.3,286047001.2,N
1550684735.2,286046998.3,N
1550684755.0,286047000.7,N
1550684755.9,286047000.7,N
1550684775.8,286046998.4,N
1550684795.6,286046996.5,N
1550684815.4,286046999.6,N
1550684835.3,286046999.4,N
1550684855.1,286046997.0,N
1550684875.9,286046999.3,N
1550684895.7,286046998.7,N
1550684915.5,286046999.4,N
1550684935.4,286046997.7,N
1550684955.2,286046995.3,Y
1550684975.0,286046997.1,P
1550684975.9,286046997.1,N
1550684995.8,286046996.5,P
1550685015.6,286046998.9,N
1550685035.5,286046997.2,N
1550685055.3,286046996.7,Y
1550685075.1,286046998.7,P
1550685095.9,286046996.6,P
1550685115.7,286046996.6,P
1550685135.6,286046998.8,N
1550685155.4,286046996.8,Y
1550685175.2,286047002.2,P
1550685195.1,286047002.4,N
1550685196.0,286047002.4,N
1550685215.8,286047000.0,N
1550685235.6,286046999.9,N
1550685255.5,286047001.3,N
1550685275.3,286047004.1,N
1550685295.2,286047004.2,N
1550685315.9,286047005.4,N
1550685335.7,286047004.9,N
1550685355.6,286047005.3,N
1550685375.4,286047005.6,N
1550685395.2,286047003.5,N
1550685415.1,286047003.7,N
1550685416.0,286047003.7,N
1550685435.8,286047004.4,N
1550685455.7,286047002.5,N
1550685475.5,286047002.5,N
1550685495.3,286047001.6,N
1550685515.2,286047001.7,N
1550685535.0,286047001.8,N
1550685535.9,286047001.8,N
1550685555.7,286047004.0,N
1550685575.6,286047003.8,N
1550685595.4,286047003.8,N
